TA2LKM-12 Weather Reports


time (UTC)temp
C
wind
direction
speed
KPH
gust
KPH
rain 1hr
cm
rain 24hr
cm
rain mn
cm
humidity
%
barometer
mb
20260504050004 11 0 0.0 0.0 0.00 0.00 0.00 73 996.5
20260504043002 10 0 0.0 0.0 0.00 0.00 0.00 76 996.5
20260504040004 10 0 0.0 0.0 0.00 0.00 0.00 78 996.4
20260504033003 9 0 0.0 0.0 0.00 0.00 0.00 80 996.1
20260504030004 9 0 0.0 0.0 0.00 0.00 0.00 78 995.9
20260504023003 9 0 0.0 0.0 0.00 0.00 0.00 75 995.6
20260504020003 9 0 0.0 0.0 0.00 0.00 0.00 76 995.5
20260504013005 9 0 0.0 0.0 0.00 0.00 0.00 77 995.6
20260504010004 9 0 0.0 0.0 0.00 0.00 0.00 75 995.4
20260504003005 10 0 0.0 0.0 0.00 0.00 0.00 75 995.3
20260504000002 10 0 0.0 0.0 0.00 0.00 0.00 74 995.3
20260503230006 9 0 0.0 0.0 0.00 0.00 0.00 74 995.3
20260503223003 9 0 0.0 0.0 0.00 0.00 0.00 74 995.3
20260503220004 9 0 0.0 0.0 0.00 0.00 0.00 72 995.4
20260503213003 9 0 0.0 0.0 0.00 0.00 0.00 72 995.5
20260503210003 9 0 0.0 0.0 0.00 0.00 0.00 73 995.6
20260503200005 9 0 0.0 0.0 0.00 0.00 0.00 71 995.9
20260503193003 8 0 0.0 0.0 0.00 0.00 0.00 71 996.1
20260503190004 9 0 0.0 0.0 0.00 0.00 0.00 72 995.9
20260503183004 9 0 0.0 0.0 0.00 0.00 0.00 73 996.1
20260503180007 9 0 0.0 0.0 0.00 0.00 0.00 74 996.1
20260503173002 9 0 0.0 0.0 0.00 0.00 0.00 76 996.0